Regional Weather Roundup
Issued by NWS

Home | Current Version | Previous Version | Text Only | Print | Product List | Glossary On
Versions: 1 2 3 4 5 6 7 8 9 10 11 12 13 14 15 16 17 18 19 20 21 22 23 24 25 26 27 28 29 30 31 32 33 34 35 36 37 38 39 40 41 42 43 44 45 46 47 48 49 50
000
ASMX46 KSGX 261903
RWRMX

MEXICAN WEATHER ROUNDUP
NATIONAL WEATHER SERVICE SAN DIEGO CA
1100 AM PST WED NOV 26 2014

BAJA CALIFORNIA

CITY           SKY/WX    TMP DP  RH WIND       PRES   REMARKS
ENSENADA NW      N/A     78  32  18 W2        30.13F
LA PAZ         SUNNY     79  55  44 N13       30.06
LORETO         SUNNY     75  68  78 N12       30.05F
MEXICALI       SUNNY     72  12  10 NW3       30.29
S.J. DEL CABO  SUNNY     84  57  39 NW16      30.00
TIJUANA        SUNNY     82   9   6 NW7       30.22F

NORTHWESTERN MEXICO

CITY           SKY/WX    TMP DP  RH WIND       PRES   REMARKS
CHIHUAHUA      SUNNY     63  14  15 N7        30.36
CULIACAN       SUNNY     86  48  26 N8        29.99
GUAYMAS        SUNNY     82   5   5 N5        30.00
HERMOSILLO     SUNNY     81  16   9 CALM      30.12
JUAREZ         SUNNY     59  28  31 NW6       30.30
LOS MOCHIS     SUNNY     81  34  18 NW15      30.02F
OBREGON        SUNNY     82  23  11 NW8       30.00

NORTHEASTERN MEXICO

CITY           SKY/WX    TMP DP  RH WIND       PRES   REMARKS
MATAMOROS      SUNNY     72  50  46 S14       30.31
MONCLOVA       SUNNY    N/A N/A N/A CALM      30.26S
MONTERREY      SUNNY     70  30  23 E7        30.25F
NUEVO LAREDO   SUNNY     73  36  25 CALM      30.26
PIEDRAS NEGRAS SUNNY     72  37  28 CALM      30.26F
REYNOSA        SUNNY     72  36  26 S12       30.25
SALTILLO       SUNNY     66  45  45 CALM      30.36F
TORREON        SUNNY     61  12  15 CALM      30.38F
VICTORIA       SUNNY     70  41  35 SE13      30.28

WESTERN MEXICO

CITY           SKY/WX    TMP DP  RH WIND       PRES   REMARKS
AGUASCALIENTES SUNNY     64   5   9 CALM      30.39
COLIMA         SUNNY     82  45  26 N14       30.06F
DURANGO        SUNNY     59   7  12 CALM      30.40F
GUADALAJARA    MOSUNNY   68  19  15 SE3       30.29
MANZANILLO     SUNNY     91  66  43 SW7       29.90F
MAZATLAN       SUNNY     82  43  24 SW8       29.97F
PTO. VALLARTA  PTSUNNY   90  48  24 E3        29.93F
TEPIC          MOSUNNY   79  59  50 SE9       30.13F
URUAPAN        SUNNY     75  46  35 SE8       30.24F
ZACATECAS      SUNNY     64  12  13 NE6       30.36

CENTRAL MEXICO

CITY           SKY/WX    TMP DP  RH WIND       PRES   REMARKS
CUERNAVACA       N/A    N/A N/A N/A MISG        N/A
LEON           SUNNY     70  12  11 CALM      30.39F
MEXICO CITY    SUNNY     64  25  22 NE7       30.39F
MORELIA        SUNNY     70  30  23 CALM      30.31
POZA RICA      SUNNY     77  63  61 NE5       30.33F
PUEBLA         MOSUNNY   72  18  13 NW6       30.35F
QUERETARO      SUNNY     68  10  10 E14       30.40F
S. LUIS POTOSI SUNNY     61  19  20 CALM      30.39F
TAMPICO        SUNNY     72  37  28 SE7       30.30F
TOLUCA         SUNNY     66   7   9 NE9       30.42F
VERACRUZ       MOSUNNY   75  54  46 N12       30.27F

SOUTHERN MEXICO

CITY           SKY/WX    TMP DP  RH WIND       PRES   REMARKS
ACAPULCO       PTSUNNY   86  73  66 SW6       29.88F
B. DE HUATULCO MOSUNNY   86  75  70 W12       29.89  HX  95
MINATITLAN     PTSUNNY   75  66  73 N16       30.21
OAXACA         PTSUNNY   68  45  42 NE18      30.31F
PTO. ESCONDIDO SUNNY     86  73  66 SW9       30.01F
TAPACHULA      PTSUNNY   86  79  79 CALM      29.86F HX  99
TUX. GUTIERREZ MOSUNNY   77  59  53 NW18      30.11F
VILLAHERMOSA   CLOUDY    73  64  73 CALM      30.23F
ZIHUATANEJO    MOSUNNY   88  75  66 SW5       29.91F HX  97

YUCATAN PENINSULA

CITY           SKY/WX    TMP DP  RH WIND       PRES   REMARKS
CAMPECHE       PTSUNNY   75  59  57 N25       30.16F
CANCUN         PTSUNNY   75  63  64 NE13      30.11F
CHETUMAL       PTSUNNY   77  70  78 N16       30.09F
C. DEL CARMEN  CLOUDY    75  63  64 NE13      30.18
COZUMEL        CLOUDY    73  66  78 N18       30.10F
MERIDA         PTSUNNY   75  54  46 N9G21     30.14F

$$




USA.gov is the U.S. government's official web portal to all federal, state and local government web resources and services.